Location: Ottawa
(45.4170°N, 75.7000°W)
Time: 16:00:16
(UTC-04:00)

Daily predictions for brighter satellites

Satellite Brightness Start Highest point End
(mag) Time Altitude Azimuth Time Altitude Azimuth Time Altitude Azimuth
Resurs 01 Rocket 2.7 21:25:20 10° S 21:29:34 45° W 21:33:51 10° NNW
Cosmos 1048 Rocket 4.1 21:24:49 10° SSW 21:30:09 89° WNW 21:35:35 10° NNE
Cosmos 921 Rocket 3.3 21:27:13 10° N 21:31:40 58° ENE 21:36:06 10° SSE
ERS-2 3.1 21:28:48 10° S 21:32:20 46° W 21:35:54 10° NNW
Cosmos 1825 Rocket 4.0 21:35:47 10° SSW 21:40:13 68° W 21:44:41 10° N
SL-8 R/B 3.8 21:36:37 10° SW 21:41:20 56° SSE 21:46:05 10° ENE
Cosmos 2278 Rocket 3.4 21:38:46 10° SSE 21:43:03 23° E 21:47:21 10° NE
ARGOS 3.2 21:37:46 10° SSE 21:43:11 85° ENE 21:48:40 10° NNW
Cosmos 1315 Rocket 3.3 21:41:04 10° SSW 21:45:06 66° WNW 21:49:14 10° N
Cosmos 1461 4.5 21:41:52 10° SSE 21:45:15 20° ESE 21:48:43 10° ENE
MetOp-A 4.2 21:44:02 10° SSE 21:49:23 89° WSW 21:54:47 10° NNW
APEX 3.8 21:49:19 10° N 21:52:11 35° ENE 21:55:17 12° SE
Cosmos 1745 Rocket 4.5 21:47:20 10° N 21:53:27 47° ENE 21:59:18 11° SSE
COSMOS 2406 3.3 21:53:08 10° NNW 21:58:56 82° ENE 22:04:22 12° SSE
Cosmos 1844 Rocket 2.7 21:53:48 10° SSW 21:59:28 89° ESE 22:05:10 10° NNE
Cosmos 1844 3.7 22:00:07 10° SSW 22:05:48 78° ESE 22:11:36 10° NNE
SL-08 RB Rocket 4.0 22:01:49 10° S 22:06:28 73° WSW 22:11:09 10° NNW
ATLAS 3B R/B 2.6 22:00:20 10° NW 22:07:02 85° NE 22:12:52 14° SE
Cosmos 1110 Rocket 4.2 22:03:18 10° NNW 22:08:28 70° WSW 22:13:32 10° S
Cosmos 1238 Rocket 3.7 22:06:36 10° SSW 22:09:21 36° WNW 22:12:18 10° N
KORONAS-FOTON 3.8 22:06:06 10° S 22:09:59 73° E 22:13:55 10° NNE
SPOT 5 3.2 22:06:25 13° SSE 22:11:00 61° ENE 22:16:15 10° N
USA 238 DEB 4.0 22:04:03 10° NW 22:11:10 73° SW 22:17:40 13° SSE
USA 238 4.0 22:04:08 10° NW 22:11:16 73° WSW 22:17:45 13° SSE
SL-14 R/B 4.1 22:09:27 15° SSE 22:12:10 32° E 22:15:42 10° NNE
Cosmos 1346 Rocket 4.0 22:10:31 10° NNW 22:14:19 41° W 22:18:07 10° SSW
Cosmos-2242 4.0 22:11:53 10° NNW 22:16:06 45° W 22:20:17 10° SSW
ATLAS 5 CENTAUR R/B 2.9 22:14:23 15° SSE 22:16:41 22° ESE 22:20:18 10° ENE
Lacrosse 5 2.9 22:12:11 10° WSW 22:17:07 51° NNW 22:22:04 10° NE
Cosmos 1331 Rocket 4.4 22:15:44 10° NNW 22:20:52 62° WSW 22:25:39 12° S
NOSS 3-2 (A) 4.1 22:15:16 10° NW 22:22:47 90° WSW 22:29:42 16° SE
S3M 4.0 22:16:44 10° S 22:23:04 77° E 22:29:30 10° N
SPOT 1/Viking Rocket 3.5 22:20:08 15° SSE 22:24:29 77° ENE 22:29:39 10° N
H-2A R/B 2.8 22:19:27 10° S 22:24:37 52° W 22:29:55 10° NNW
Cosmos 494 Rocket 4.2 22:19:35 10° SSW 22:24:50 74° WNW 22:30:08 10° NNE
Cosmos 2082 Rocket 3.2 22:23:21 10° NNW 22:28:37 36° NE 22:33:00 14° ESE
Cosmos 1833 Rocket 3.5 22:24:09 10° NNW 22:29:25 40° NE 22:33:38 15° ESE
Helios 1B rocket 2.8 22:27:08 10° NNE 22:31:05 44° E 22:33:41 19° SSE
Helios 1A 3.0 22:28:25 17° SSE 22:31:36 88° ENE 22:35:51 10° NNW
Cosmos 1626 3.2 22:31:41 21° SE 22:33:13 28° E 22:36:26 10° NNE
Cosmos 1842 Rocket 3.6 22:31:26 10° NNW 22:35:47 77° W 22:39:11 16° S
CZ-2C R/B 3.7 22:32:25 10° NE 22:37:01 28° E 22:39:35 19° SE
Cosmos 1340 3.3 22:35:57 10° NNW 22:39:38 51° W 22:42:33 15° S
ATLAS 2AS CENTAUR R/B 3.6 22:32:19 10° SW 22:40:10 64° NW 22:48:16 10° NE
Cosmos 1553 Rocket 4.3 22:39:46 10° SSW 22:45:46 64° W 22:51:50 10° N
Landsat 7 3.8 22:42:27 19° S 22:45:54 82° WSW 22:50:42 10° NNW
NOSS 3-2 (C) 4.1 22:41:07 10° NW 22:48:40 86° SW 22:54:47 20° SSE
Spot 1 4.2 22:46:00 23° SSE 22:48:42 71° ENE 22:53:21 10° N
Cosmos 1302 Rocket 4.3 22:44:38 10° NNW 22:49:52 62° WSW 22:53:36 19° S
DMSP B5D2-2 4.4 22:45:06 10° N 22:50:19 67° WNW 22:55:29 10° SSW
ERS-1 Rocket 4.1 22:46:44 10° SSW 22:51:25 39° W 22:56:08 10° NNW
Cosmos 1455 3.5 22:54:32 10° NNE 22:57:47 26° ENE 22:59:05 21° ESE
Cosmos 1300 3.0 22:55:31 10° NNW 22:59:18 60° W 23:01:28 23° S
Cosmos 883 Rocket 4.4 22:55:17 16° S 23:00:23 82° E 23:06:40 10° N
Cosmos 2251 Rocket 3.9 22:58:41 10° SSW 23:04:00 67° WNW 23:09:19 10° NNE
Cosmos 1726 4.2 23:01:06 10° NW 23:04:06 23° W 23:07:05 10° SW
Terra 1.8 23:02:30 24° S 23:05:21 81° WSW 23:10:08 10° NNW
Cosmos 2221 2.7 23:01:27 10° NNW 23:05:45 70° W 23:08:10 25° S
Cosmos 1992 Rocket 4.1 23:00:37 10° NNW 23:05:50 67° ENE 23:08:42 27° SE
Cosmos 2315 Rocket 4.0 23:02:11 20° S 23:06:40 71° E 23:13:01 10° NNE
RESURS DK-1 3.1 23:06:04 31° SE 23:06:59 34° ESE 23:10:46 10° NE
Okean 3 Rocket 3.6 23:06:52 29° SSE 23:08:58 62° E 23:13:19 10° NNE
H-2A R/B 4.4 23:09:34 19° S 23:13:56 27° SE 23:42:00 10° E
CENTAUR R/B 3.2 23:06:11 10° NW 23:14:06 77° NE 23:20:12 21° SE
Meteor 1-29 3.0 23:10:44 10° N 23:14:08 74° WNW 23:15:43 29° SSW
NOSS 2-2 (E) 3.3 23:11:46 17° SSW 23:14:43 75° SE 23:19:15 10° NE
NOSS 3-4 (A) 3.5 23:11:03 10° SW 23:17:14 88° NW 23:23:45 10° NE
NOSS 3-4 (C) 3.5 23:11:08 10° SW 23:17:19 89° NW 23:23:50 10° NE
CZ-2C R/B 3.5 23:19:33 24° S 23:23:08 71° WSW 23:28:53 10° NNW
Cosmos 1328 3.8 23:21:27 30° SSW 23:23:18 80° W 23:27:16 10° N
SL-8 R/B 4.1 23:19:06 10° W 23:23:55 66° N 23:28:44 10° ENE
Cosmos 1461 3.8 23:19:24 10° SW 23:24:00 58° NW 23:28:45 10° NNE
Meteor 1-11 4.3 23:20:56 27° SSE 23:24:02 63° E 23:29:47 10° NNE
SAR-Lupe-4 4.3 23:23:20 33° ESE 23:24:17 40° ENE 23:27:40 10° N
Cosmos 2278 Rocket 2.7 23:21:04 10° SW 23:26:40 59° WNW 23:32:18 10° NNE
ATLAS 3B CENTAUR R/B 4.2 23:23:50 10° SW 23:34:02 23° S 23:35:02 23° S
Spot 4 3.9 23:33:05 34° SSE 23:35:12 77° ENE 23:40:05 10° N
Cosmos 407 Rocket 4.1 23:35:40 32° SE 23:37:05 39° ESE 23:41:52 10° NE
Cosmos 1441 Rocket 3.5 23:35:04 10° N 23:38:47 50° ENE 23:39:34 42° ESE
SAR-Lupe-1 4.3 23:41:45 46° ESE 23:42:26 56° ENE 23:45:59 10° N
NOSS 2-2 (D) 3.7 23:42:34 16° SW 23:45:39 68° NW 23:50:10 10° NE
Cosmos 1190 Rocket 4.2 23:49:21 37° SSE 23:51:01 52° ESE 23:56:05 10° NNE
Cosmos 1500 Rocket 4.4 23:50:19 31° ESE 23:51:02 33° E 23:54:55 10° NNE
Cosmos 405 Rocket 2.9 23:47:28 10° N 23:51:08 53° ENE 23:51:43 47° ESE
